Time,TemperatureF,DewpointF,PressureIn,WindDirection,WindDirectionDegrees,WindSpeedMPH,WindSpeedGustMPH,Humidity,HourlyPrecipIn,Conditions,Clouds,dailyrainin,SoftwareType,DateUTC
2013-03-07 00:01:00,39.0,39.0,29.88,North,0,0.0,0.0,99,0.04,,,0.48,,2013-03-07 08:01:00,
2013-03-07 00:11:00,39.0,39.0,29.88,North,0,0.0,0.0,99,0.04,,,0.48,,2013-03-07 08:11:00,
2013-03-07 00:21:00,39.0,38.0,29.88,North,0,0.0,0.0,96,0.04,,,0.48,,2013-03-07 08:21:00,
2013-03-07 00:31:00,39.0,38.0,29.88,North,0,0.0,0.0,95,0.03,,,0.50,,2013-03-07 08:31:00,
2013-03-07 00:43:00,39.0,38.0,29.88,North,0,0.0,0.0,95,0.03,,,0.50,,2013-03-07 08:43:00,
2013-03-07 00:53:00,39.0,38.0,29.89,North,0,0.0,0.0,95,0.03,,,0.50,,2013-03-07 08:53:00,
2013-03-07 01:01:00,39.0,38.0,29.89,North,0,0.0,0.0,95,0.02,,,0.50,,2013-03-07 09:01:00,
2013-03-07 01:11:00,39.0,38.0,29.89,North,0,0.0,0.0,95,0.02,,,0.50,,2013-03-07 09:11:00,
2013-03-07 01:21:00,39.0,38.0,29.90,North,0,0.0,0.0,95,0.01,,,0.50,,2013-03-07 09:21:00,
2013-03-07 01:31:00,39.0,38.0,29.90,North,0,0.0,0.0,95,0.01,,,0.49,,2013-03-07 09:31:00,
2013-03-07 01:41:00,39.0,38.0,29.90,North,0,0.0,0.0,95,0.01,,,0.49,,2013-03-07 09:41:00,
2013-03-07 01:52:00,39.0,38.0,29.90,North,0,0.0,0.0,95,0.01,,,0.49,,2013-03-07 09:52:00,
2013-03-07 02:01:00,39.0,38.0,29.90,North,0,0.0,0.0,95,0.00,,,0.49,,2013-03-07 10:01:00,
2013-03-07 02:11:00,39.0,38.0,29.90,North,0,0.0,0.0,95,0.00,,,0.49,,2013-03-07 10:11:00,
2013-03-07 02:21:00,39.0,38.0,29.91,North,0,0.0,0.0,96,0.01,,,0.49,,2013-03-07 10:21:00,
2013-03-07 02:31:00,39.0,38.0,29.91,North,0,0.0,0.0,95,0.01,,,0.46,,2013-03-07 10:31:00,
2013-03-07 02:41:00,39.0,38.0,29.91,North,0,0.0,0.0,95,0.01,,,0.46,,2013-03-07 10:41:00,
2013-03-07 02:52:00,38.0,37.0,29.91,North,0,0.0,0.0,96,0.01,,,0.46,,2013-03-07 10:52:00,
2013-03-07 03:01:00,38.0,37.0,29.91,North,0,0.0,0.0,96,0.01,,,0.46,,2013-03-07 11:01:00,
2013-03-07 03:11:00,38.0,37.0,29.91,North,0,0.0,0.0,96,0.01,,,0.46,,2013-03-07 11:11:00,
2013-03-07 03:22:00,38.0,37.0,29.91,North,0,0.0,0.0,95,0.00,,,0.46,,2013-03-07 11:22:00,
2013-03-07 03:32:00,38.0,36.0,29.91,North,0,0.0,0.0,94,0.00,,,0.39,,2013-03-07 11:32:00,
2013-03-07 03:41:00,38.0,36.0,29.91,North,0,0.0,0.0,94,0.00,,,0.39,,2013-03-07 11:41:00,
2013-03-07 03:53:00,39.0,37.0,29.91,North,0,0.0,0.0,93,0.00,,,0.39,,2013-03-07 11:53:00,
2013-03-07 04:01:00,39.0,38.0,29.92,North,0,0.0,0.0,96,0.00,,,0.39,,2013-03-07 12:01:00,
2013-03-07 04:11:00,39.0,38.0,29.92,North,0,0.0,0.0,96,0.00,,,0.39,,2013-03-07 12:11:00,
2013-03-07 04:21:00,38.0,36.0,29.92,North,0,0.0,0.0,94,0.00,,,0.39,,2013-03-07 12:21:00,
2013-03-07 04:32:00,38.0,36.0,29.93,North,0,0.0,0.0,94,0.00,,,0.34,,2013-03-07 12:32:00,
2013-03-07 04:41:00,38.0,36.0,29.93,North,0,0.0,0.0,94,0.00,,,0.34,,2013-03-07 12:41:00,
2013-03-07 04:52:00,38.0,36.0,29.93,North,0,0.0,0.0,94,0.00,,,0.34,,2013-03-07 12:52:00,
2013-03-07 05:01:00,38.0,36.0,29.93,North,0,0.0,0.0,93,0.00,,,0.34,,2013-03-07 13:01:00,
2013-03-07 05:11:00,38.0,36.0,29.93,North,0,0.0,0.0,93,0.00,,,0.34,,2013-03-07 13:11:00,
2013-03-07 05:22:00,38.0,36.0,29.93,North,0,0.0,0.0,92,0.01,,,0.34,,2013-03-07 13:22:00,
2013-03-07 05:31:00,38.0,35.0,29.93,North,0,0.0,0.0,90,0.01,,,0.31,,2013-03-07 13:31:00,
2013-03-07 05:41:00,38.0,35.0,29.93,North,0,0.0,0.0,90,0.01,,,0.31,,2013-03-07 13:41:00,
2013-03-07 05:53:00,38.0,36.0,29.94,North,0,0.0,0.0,91,0.01,,,0.31,,2013-03-07 13:53:00,
2013-03-07 06:01:00,38.0,36.0,29.94,North,0,0.0,0.0,92,0.01,,,0.31,,2013-03-07 14:01:00,
2013-03-07 06:11:00,38.0,36.0,29.94,North,0,0.0,0.0,92,0.01,,,0.31,,2013-03-07 14:11:00,
2013-03-07 06:21:00,38.0,36.0,29.94,North,0,0.0,0.0,93,0.00,,,0.31,,2013-03-07 14:21:00,
2013-03-07 06:31:00,38.0,37.0,29.95,North,0,0.0,0.0,95,0.00,,,0.27,,2013-03-07 14:31:00,
2013-03-07 06:41:00,38.0,37.0,29.95,North,0,0.0,0.0,95,0.00,,,0.27,,2013-03-07 14:41:00,
2013-03-07 06:53:00,38.0,37.0,29.95,North,0,0.0,0.0,96,0.00,,,0.27,,2013-03-07 14:53:00,
2013-03-07 07:01:00,38.0,37.0,29.95,North,0,0.0,0.0,97,0.00,,,0.27,,2013-03-07 15:01:00,
2013-03-07 07:11:00,38.0,37.0,29.95,North,0,0.0,0.0,97,0.00,,,0.27,,2013-03-07 15:11:00,
2013-03-07 07:21:00,38.0,37.0,29.95,North,0,0.0,0.0,98,0.00,,,0.27,,2013-03-07 15:21:00,
2013-03-07 07:31:00,38.0,37.0,29.95,North,0,0.0,0.0,98,0.00,,,0.25,,2013-03-07 15:31:00,
2013-03-07 07:41:00,38.0,37.0,29.95,North,0,0.0,0.0,98,0.00,,,0.25,,2013-03-07 15:41:00,
2013-03-07 07:52:00,38.0,37.0,29.95,North,0,0.0,0.0,98,0.00,,,0.25,,2013-03-07 15:52:00,
2013-03-07 08:01:00,38.0,37.0,29.96,North,0,0.0,0.0,98,0.00,,,0.25,,2013-03-07 16:01:00,
2013-03-07 08:11:00,38.0,37.0,29.96,North,0,0.0,0.0,98,0.00,,,0.25,,2013-03-07 16:11:00,
2013-03-07 08:21:00,38.0,37.0,29.96,North,0,0.0,0.0,98,0.00,,,0.25,,2013-03-07 16:21:00,
2013-03-07 08:31:00,39.0,38.0,29.98,North,0,0.0,0.0,96,0.00,,,0.24,,2013-03-07 16:31:00,
2013-03-07 08:41:00,39.0,38.0,29.98,North,0,0.0,0.0,96,0.00,,,0.24,,2013-03-07 16:41:00,
2013-03-07 08:52:00,39.0,38.0,29.98,North,0,0.0,0.0,97,0.00,,,0.24,,2013-03-07 16:52:00,
2013-03-07 09:01:00,40.0,39.0,29.98,North,0,0.0,0.0,97,0.00,,,0.24,,2013-03-07 17:01:00,
2013-03-07 09:11:00,40.0,39.0,29.98,North,0,0.0,0.0,97,0.00,,,0.24,,2013-03-07 17:11:00,
2013-03-07 09:21:00,40.0,39.0,29.99,North,0,0.0,0.0,96,0.00,,,0.24,,2013-03-07 17:21:00,
2013-03-07 09:31:00,41.0,40.0,29.99,North,0,0.0,0.0,95,0.00,,,0.23,,2013-03-07 17:31:00,
2013-03-07 09:41:00,41.0,40.0,29.99,North,0,0.0,0.0,95,0.00,,,0.23,,2013-03-07 17:41:00,
2013-03-07 09:53:00,41.0,39.0,29.99,North,0,0.0,0.0,93,0.00,,,0.23,,2013-03-07 17:53:00,
2013-03-07 10:01:00,41.0,39.0,29.99,North,0,0.0,0.0,91,0.00,,,0.23,,2013-03-07 18:01:00,
2013-03-07 10:11:00,41.0,39.0,29.99,North,0,0.0,0.0,91,0.00,,,0.23,,2013-03-07 18:11:00,
2013-03-07 10:21:00,42.0,40.0,29.99,North,0,0.0,0.0,91,0.00,,,0.23,,2013-03-07 18:21:00,
2013-03-07 10:31:00,43.0,39.0,29.99,North,0,0.0,0.0,87,0.00,,,0.21,,2013-03-07 18:31:00,
2013-03-07 10:41:00,43.0,39.0,29.99,North,0,0.0,0.0,87,0.00,,,0.21,,2013-03-07 18:41:00,
2013-03-07 10:51:00,44.0,39.0,29.99,North,0,0.0,0.0,81,0.00,,,0.21,,2013-03-07 18:51:00,
2013-03-07 11:02:00,44.0,38.0,30.00,North,0,0.0,0.0,79,0.00,,,0.21,,2013-03-07 19:02:00,
2013-03-07 11:11:00,44.0,37.0,30.00,North,0,0.0,0.0,77,0.00,,,0.21,,2013-03-07 19:11:00,
2013-03-07 11:21:00,44.0,37.0,30.00,North,0,0.0,0.0,77,0.00,,,0.21,,2013-03-07 19:21:00,
2013-03-07 11:31:00,43.0,36.0,30.00,North,0,0.0,0.0,76,0.00,,,0.16,,2013-03-07 19:31:00,
2013-03-07 11:42:00,43.0,36.0,30.00,North,0,0.0,0.0,76,0.00,,,0.16,,2013-03-07 19:42:00,
2013-03-07 11:52:00,44.0,36.0,30.00,North,0,0.0,0.0,73,0.00,,,0.16,,2013-03-07 19:52:00,
2013-03-07 12:01:00,45.0,36.0,30.00,North,0,0.0,0.0,71,0.00,,,0.16,,2013-03-07 20:01:00,
2013-03-07 12:11:00,45.0,36.0,30.00,North,0,0.0,0.0,71,0.00,,,0.16,,2013-03-07 20:11:00,
2013-03-07 12:21:00,46.0,36.0,30.00,North,0,0.0,0.0,69,0.00,,,0.16,,2013-03-07 20:21:00,
2013-03-07 12:31:00,47.0,34.0,30.00,North,0,0.0,0.0,61,0.00,,,0.15,,2013-03-07 20:31:00,
2013-03-07 12:41:00,47.0,34.0,30.00,North,0,0.0,0.0,61,0.00,,,0.15,,2013-03-07 20:41:00,
2013-03-07 12:53:00,47.0,36.0,30.00,North,0,0.0,0.0,66,0.00,,,0.15,,2013-03-07 20:53:00,
2013-03-07 13:01:00,47.0,37.0,29.99,North,0,0.0,0.0,67,0.00,,,0.15,,2013-03-07 21:01:00,
2013-03-07 13:11:00,47.0,37.0,29.99,North,0,0.0,0.0,67,0.00,,,0.15,,2013-03-07 21:11:00,
2013-03-07 13:21:00,46.0,35.0,29.99,North,0,0.0,0.0,66,0.00,,,0.15,,2013-03-07 21:21:00,
2013-03-07 13:31:00,47.0,37.0,29.99,North,0,0.0,0.0,67,0.00,,,0.15,,2013-03-07 21:31:00,
2013-03-07 13:41:00,47.0,37.0,29.99,North,0,0.0,0.0,67,0.00,,,0.15,,2013-03-07 21:41:00,
2013-03-07 13:52:00,46.0,35.0,29.99,North,0,0.0,0.0,64,0.00,,,0.15,,2013-03-07 21:52:00,
2013-03-07 14:01:00,46.0,35.0,29.98,North,0,0.0,0.0,65,0.00,,,0.15,,2013-03-07 22:01:00,
2013-03-07 14:11:00,46.0,35.0,29.98,North,0,0.0,0.0,65,0.00,,,0.15,,2013-03-07 22:11:00,
2013-03-07 14:21:00,47.0,35.0,29.98,North,0,0.0,0.0,63,0.00,,,0.15,,2013-03-07 22:21:00,
2013-03-07 14:31:00,47.0,35.0,29.98,North,0,0.0,0.0,62,0.00,,,0.15,,2013-03-07 22:31:00,
2013-03-07 14:41:00,47.0,35.0,29.98,North,0,0.0,0.0,62,0.00,,,0.15,,2013-03-07 22:41:00,
2013-03-07 14:53:00,47.0,35.0,29.98,North,0,0.0,0.0,64,0.00,,,0.15,,2013-03-07 22:53:00,
2013-03-07 15:01:00,46.0,33.0,29.98,North,0,0.0,0.0,61,0.00,,,0.15,,2013-03-07 23:01:00,
2013-03-07 15:11:00,46.0,33.0,29.98,North,0,0.0,0.0,61,0.00,,,0.15,,2013-03-07 23:11:00,
2013-03-07 15:21:00,46.0,33.0,29.99,North,0,0.0,0.0,61,0.00,,,0.15,,2013-03-07 23:21:00,
2013-03-07 15:31:00,45.0,33.0,29.99,North,0,0.0,0.0,63,0.00,,,0.13,,2013-03-07 23:31:00,
2013-03-07 15:41:00,45.0,33.0,29.99,North,0,0.0,0.0,63,0.00,,,0.13,,2013-03-07 23:41:00,
2013-03-07 15:53:00,45.0,34.0,29.99,North,0,0.0,0.0,64,0.00,,,0.13,,2013-03-07 23:53:00,
2013-03-07 16:01:00,45.0,33.0,29.99,North,0,0.0,0.0,62,0.00,,,0.13,,2013-03-08 00:01:00,
2013-03-07 16:11:00,45.0,33.0,29.99,North,0,0.0,0.0,62,0.00,,,0.13,,2013-03-08 00:11:00,
2013-03-07 16:21:00,45.0,36.0,29.98,North,0,0.0,0.0,70,0.00,,,0.13,,2013-03-08 00:21:00,
2013-03-07 16:31:00,45.0,35.0,29.98,North,0,0.0,0.0,69,0.00,,,0.13,,2013-03-08 00:31:00,
2013-03-07 16:42:00,45.0,35.0,29.98,North,0,0.0,0.0,69,0.00,,,0.13,,2013-03-08 00:42:00,
2013-03-07 16:53:00,44.0,35.0,29.98,North,0,0.0,0.0,71,0.00,,,0.13,,2013-03-08 00:53:00,
2013-03-07 17:01:00,44.0,34.0,29.99,North,0,0.0,0.0,68,0.00,,,0.13,,2013-03-08 01:01:00,
2013-03-07 17:11:00,44.0,34.0,29.99,North,0,0.0,0.0,68,0.00,,,0.13,,2013-03-08 01:11:00,
2013-03-07 17:21:00,44.0,34.0,29.98,North,0,0.0,0.0,69,0.00,,,0.13,,2013-03-08 01:21:00,
2013-03-07 17:31:00,43.0,34.0,29.98,North,0,0.0,0.0,69,0.00,,,0.11,,2013-03-08 01:31:00,
2013-03-07 17:41:00,43.0,34.0,29.98,North,0,0.0,0.0,69,0.00,,,0.11,,2013-03-08 01:41:00,
2013-03-07 17:52:00,43.0,34.0,29.98,North,0,0.0,0.0,69,0.00,,,0.11,,2013-03-08 01:52:00,
2013-03-07 18:01:00,42.0,31.0,29.99,North,0,0.0,0.0,64,0.00,,,0.11,,2013-03-08 02:01:00,
2013-03-07 18:11:00,41.0,32.0,29.99,North,0,0.0,0.0,70,0.00,,,0.11,,2013-03-08 02:11:00,
2013-03-07 18:21:00,41.0,32.0,29.99,North,0,0.0,0.0,70,0.00,,,0.11,,2013-03-08 02:21:00,
2013-03-07 18:31:00,41.0,34.0,29.99,North,0,0.0,0.0,77,0.00,,,0.11,,2013-03-08 02:31:00,
2013-03-07 18:41:00,41.0,34.0,29.99,North,0,0.0,0.0,77,0.00,,,0.11,,2013-03-08 02:41:00,
2013-03-07 18:52:00,40.0,34.0,29.99,North,0,0.0,0.0,79,0.00,,,0.11,,2013-03-08 02:52:00,
2013-03-07 19:01:00,40.0,35.0,29.99,North,0,0.0,0.0,82,0.00,,,0.11,,2013-03-08 03:01:00,
2013-03-07 19:11:00,40.0,35.0,29.99,North,0,0.0,0.0,82,0.00,,,0.11,,2013-03-08 03:11:00,
2013-03-07 19:21:00,40.0,35.0,29.99,North,0,0.0,0.0,83,0.00,,,0.11,,2013-03-08 03:21:00,
2013-03-07 19:41:00,40.0,35.0,29.99,North,0,0.0,0.0,83,0.00,,,0.11,,2013-03-08 03:41:00,
2013-03-07 19:52:00,40.0,35.0,29.99,North,0,0.0,0.0,83,0.00,,,0.11,,2013-03-08 03:52:00,
2013-03-07 20:01:00,40.0,34.0,29.99,North,0,0.0,0.0,80,0.00,,,0.11,,2013-03-08 04:01:00,
2013-03-07 20:11:00,40.0,34.0,29.99,North,0,0.0,0.0,79,0.00,,,0.11,,2013-03-08 04:11:00,
2013-03-07 20:21:00,40.0,34.0,29.99,North,0,0.0,0.0,79,0.00,,,0.11,,2013-03-08 04:21:00,
2013-03-07 20:31:00,40.0,34.0,29.99,North,0,0.0,0.0,80,0.00,,,0.10,,2013-03-08 04:31:00,
2013-03-07 20:42:00,40.0,34.0,29.99,North,0,0.0,0.0,80,0.00,,,0.10,,2013-03-08 04:42:00,
2013-03-07 20:52:00,40.0,35.0,30.00,North,0,0.0,0.0,81,0.00,,,0.10,,2013-03-08 04:52:00,
2013-03-07 21:01:00,40.0,35.0,30.00,North,0,0.0,0.0,81,0.00,,,0.10,,2013-03-08 05:01:00,
2013-03-07 21:11:00,40.0,35.0,30.00,North,0,0.0,0.0,81,0.00,,,0.10,,2013-03-08 05:11:00,
2013-03-07 21:22:00,40.0,35.0,30.00,North,0,0.0,0.0,82,0.00,,,0.10,,2013-03-08 05:22:00,
2013-03-07 21:31:00,40.0,35.0,30.00,North,0,0.0,0.0,83,0.00,,,0.10,,2013-03-08 05:31:00,
2013-03-07 21:42:00,40.0,35.0,30.00,North,0,0.0,0.0,83,0.00,,,0.10,,2013-03-08 05:42:00,
2013-03-07 21:52:00,39.0,33.0,30.00,North,0,0.0,0.0,80,0.00,,,0.10,,2013-03-08 05:52:00,
2013-03-07 22:01:00,40.0,35.0,30.00,North,0,0.0,0.0,81,0.00,,,0.10,,2013-03-08 06:01:00,
2013-03-07 22:11:00,40.0,35.0,30.00,North,0,0.0,0.0,81,0.00,,,0.10,,2013-03-08 06:11:00,
2013-03-07 22:21:00,40.0,34.0,30.00,North,0,0.0,0.0,80,0.00,,,0.10,,2013-03-08 06:21:00,
2013-03-07 22:31:00,40.0,35.0,30.00,North,0,0.0,0.0,81,0.00,,,0.09,,2013-03-08 06:31:00,
2013-03-07 22:41:00,40.0,35.0,30.00,North,0,0.0,0.0,81,0.00,,,0.09,,2013-03-08 06:41:00,
2013-03-07 22:52:00,40.0,35.0,29.99,North,0,0.0,0.0,81,0.00,,,0.09,,2013-03-08 06:52:00,
2013-03-07 23:01:00,40.0,35.0,30.00,North,0,0.0,0.0,81,0.00,,,0.09,,2013-03-08 07:01:00,
2013-03-07 23:11:00,40.0,35.0,30.00,North,0,0.0,0.0,81,0.00,,,0.09,,2013-03-08 07:11:00,
2013-03-07 23:21:00,40.0,35.0,29.99,North,0,0.0,0.0,81,0.00,,,0.09,,2013-03-08 07:21:00,
2013-03-07 23:31:00,40.0,34.0,29.99,North,0,0.0,0.0,80,0.00,,,0.06,,2013-03-08 07:31:00,
2013-03-07 23:41:00,40.0,34.0,29.99,North,0,0.0,0.0,80,0.00,,,0.06,,2013-03-08 07:41:00,
2013-03-07 23:52:00,40.0,34.0,29.99,North,0,0.0,0.0,78,0.00,,,0.06,,2013-03-08 07:52:00,